User: anonymous   Login
Location: Unspecified
(0.0000°N, 0.0000°E)
Time: 16:36:21
(UTC+02:00)
Language:

Cosmos 540 Rocket - Orbit

View from above orbital plane
View from above orbital plane
View from above satellite
View from above satellite

Ground track
Ground track

The orbit data is extracted from the following two-line orbital elements,

1  6324U 72104B   17204.91643453 -.00000022 +00000-0 +11998-5 0  9996
2  6324 074.0763 037.9049 0009025 173.8865 186.2403 14.43375859340606
Epoch (UTC): 23 July 2017 21:59:39
Eccentricity: 0.0009025
inclination: 74.0763°
perigee height: 741 km
apogee height: 754 km
right ascension of ascending node: 37.9049°
argument of perigee: 173.8865°
revolutions per day: 14.43375859
mean anomaly at epoch: 186.2403°
orbit number at epoch: 34060

The dashed part of the orbit path shows where the satellite is in the earth's shadow,  

DLR